Regional Weather Roundup
Issued by NWS

Home | Current Version | Previous Version | Text Only | Print | Product List | Glossary On
Versions: 1 2 3 4 5 6 7 8 9 10 11 12 13 14 15 16 17 18 19 20 21 22 23 24 25 26 27 28 29 30 31 32 33 34 35 36 37 38 39 40 41 42 43 44 45 46 47 48 49 50
000
ASMX46 KSGX 250410
RWRMX

MEXICAN WEATHER ROUNDUP
NATIONAL WEATHER SERVICE SAN DIEGO CA
900 PM PDT THU JUL 24 2014

BAJA CALIFORNIA

CITY           SKY/WX    TMP DP  RH WIND       PRES   REMARKS
ENSENADA NW      N/A     68  32  26 CALM      29.82R
LA PAZ         PTCLDY    84  72  65 S9        29.89R
MEXICALI       MOCLDY   100  52  19 S7        29.66R HX  98
S.J. DEL CABO  CLEAR     81  73  78 SE6       29.90R
TIJUANA        PTCLDY    72  61  68 NW7       29.85R

NORTHWESTERN MEXICO

CITY           SKY/WX    TMP DP  RH WIND       PRES   REMARKS
CHIHUAHUA      MOCLDY    75  48  38 N6        30.17R
CULIACAN       MOCLDY    90  75  62 CALM      29.86R HX 100
HERMOSILLO     CLOUDY    93  72  49 CALM      29.88R HX 100
LOS MOCHIS       N/A    N/A N/A N/A MISG        N/A
OBREGON          N/A    N/A N/A N/A MISG        N/A

NORTHEASTERN MEXICO

CITY           SKY/WX    TMP DP  RH WIND       PRES   REMARKS
MATAMOROS      MOCLDY    82  79  89 E5        29.99R
MONTERREY      CLEAR     84  64  51 E12       29.97R
REYNOSA        CLEAR     81  72  74 SE14      29.98R
SALTILLO       CLEAR     72  61  68 CALM      30.23R
TORREON        MOCLDY    82  52  34 NE10      30.09R
VICTORIA       CLEAR     82  68  61 S10       29.99R

WESTERN MEXICO

CITY           SKY/WX    TMP DP  RH WIND       PRES   REMARKS
AGUASCALIENTES CLEAR     55  50  82 S5        30.34R
GUADALAJARA    CLOUDY    63  57  82 SE6       30.23S
MAZATLAN       TSTM      81  73  78 E8        29.91R
PTO. VALLARTA  PTCLDY    73  70  88 NE3       29.92R
ZACATECAS      MOCLDY    61  39  44 SE7       30.34R

CENTRAL MEXICO

CITY           SKY/WX    TMP DP  RH WIND       PRES   REMARKS
LEON           CLOUDY    61  59  94 W5        30.35R
MEXICO CITY    TSTM      59  54  82 NW12      30.39R
MORELIA        MOCLDY    61  55  82 N7        30.30R
QUERETARO      MOCLDY    59  55  88 CALM      30.38R
S. LUIS POTOSI PTCLDY    64  50  59 S14       30.31R
TAMPICO        MOCLDY    81  70  69 SE9       30.01R
TOLUCA         PTCLDY    52  45  76 CALM      30.44R
VERACRUZ       CLEAR     79  73  83 NE2       30.00R

SOUTHERN MEXICO

CITY           SKY/WX    TMP DP  RH WIND       PRES   REMARKS
ACAPULCO       MOCLDY    84  75  74 W3        29.89R
OAXACA         MOCLDY    66  54  63 S6        30.27R
TAPACHULA      MOCLDY    84  79  84 CALM      29.92S HX  96
TUX. GUTIERREZ MOCLDY    79  70  73 N6        29.99R
VILLAHERMOSA   CLEAR     81  73  78 NE13      30.01R

YUCATAN PENINSULA

CITY           SKY/WX    TMP DP  RH WIND       PRES   REMARKS
CAMPECHE       MOCLDY    79  73  83 N6        30.01R
CANCUN         PTCLDY    81  75  83 CALM      30.06R
COZUMEL        PTCLDY    73  73 100 CALM      30.06R
MERIDA         MOCLDY    77  72  83 CALM      30.05R

$$



USA.gov is the U.S. government's official web portal to all federal, state and local government web resources and services.